Location: Bakersfield
(35.3730°N, 119.0180°W)
Time: 12:58:29
(UTC-07:00)

Daily predictions for brighter satellites

Satellite Brightness Start Highest point End
(mag) Time Altitude Azimuth Time Altitude Azimuth Time Altitude Azimuth
Milstar 3 Cent rocket 3.8 19:19:07 10° SSW 19:22:07 15° SSE 19:24:48 10° SE
Cosmos 2058 Rocket 4.0 19:19:52 10° SE 19:23:27 26° E 19:27:03 10° NNE
Cosmos 2084 4.3 19:21:41 10° S 19:25:10 26° ESE 19:28:30 10° ENE
Shenzhou-11 Module 3.2 19:22:24 10° WNW 19:25:15 37° SSW 19:28:06 10° SE
Cosmos 1606 Rocket 3.7 19:22:11 10° SSE 19:26:23 49° E 19:30:35 10° NNE
USA 229 DEB 4.3 19:19:45 10° NNW 19:26:32 42° NE 19:33:24 10° ESE
USA 229 4.3 19:19:52 10° NNW 19:26:37 42° NE 19:33:29 10° ESE
Cosmos 2228 4.0 19:24:12 10° SSE 19:27:52 26° E 19:31:30 10° NNE
Cosmos 1953 Rocket 4.2 19:25:45 10° NNE 19:29:40 33° ENE 19:33:34 10° SE
Thor Agena Rocket 3.5 19:27:46 10° NNE 19:33:03 79° ESE 19:38:13 10° S
Cosmos 1763 Rocket 3.8 19:29:43 10° S 19:34:27 41° ESE 19:39:15 10° NNE
Cosmos 489 Rocket 4.5 19:29:16 10° NNW 19:35:31 74° ENE 19:41:48 10° SSE
Cosmos 1184 Rocket 3.7 19:43:16 10° NNW 19:46:35 54° W 19:49:53 10° S
H-2A R/B 2.8 19:43:19 10° SSE 19:46:54 50° ENE 19:50:31 10° N
Meteor 2-5 Rocket 4.1 19:42:02 10° N 19:47:38 44° ENE 19:53:04 10° SSE
Cosmos 1825 Rocket 3.5 19:45:38 10° N 19:50:03 88° E 19:54:30 10° S
GEOS 3 Rocket 4.4 19:45:46 10° NE 19:50:34 32° ESE 19:55:18 10° S
Cosmos 1943 Rocket 2.1 19:47:07 10° NNW 19:52:41 67° ENE 19:58:15 10° SSE
GPS 2-04 Rocket1 3.6 19:50:02 10° W 19:54:09 46° SSW 19:57:12 17° SE
Cosmos 1766 4.3 19:51:52 10° SSE 19:55:07 25° E 19:58:23 10° NE
Spot 2 Rocket 4.5 19:53:04 17° ESE 19:55:46 26° ENE 19:59:55 10° NNE
Meteor 2-13 Rocket 4.4 19:53:16 10° S 19:59:20 75° E 20:05:25 10° N
Tiangong 2 2.4 19:58:02 10° WNW 20:01:01 35° SW 20:02:58 18° SSE
Cosmos 2181 Rocket 3.9 19:55:39 10° N 20:01:53 84° E 20:08:00 10° S
FengYun 1-2 T 4.3 20:02:42 10° SSE 20:08:20 87° WSW 20:13:57 10° NNW
Cosmos 304 Rocket 3.7 20:03:54 10° S 20:08:35 60° ESE 20:13:18 10° NNE
Cosmos 1898 Rocket 3.5 20:03:27 10° NNW 20:08:39 80° WSW 20:13:48 10° SSE
Cosmos 1707 2.6 20:05:01 10° N 20:08:57 86° E 20:12:52 10° S
COSMOS 2406 3.6 20:04:43 10° S 20:09:58 40° ESE 20:15:17 10° NE
Cosmos 1814 Rocket 4.2 20:04:53 10° SSW 20:10:03 71° WNW 20:15:12 10° NNE
USA 81 4.0 20:07:11 10° N 20:12:29 87° E 20:17:45 10° S
Cosmos 1340 Rocket 3.5 20:13:07 10° NNW 20:17:06 56° W 20:21:05 10° S
Cosmos 2074 Rocket 3.9 20:13:13 10° S 20:19:23 74° E 20:25:34 10° N
Resurs 1-3 3.8 20:17:59 33° ESE 20:19:27 46° ENE 20:23:39 10° N
Cosmos 1758 Rocket 4.4 20:16:46 10° NNW 20:21:09 53° W 20:25:31 10° S
Cosmos 1356 Rocket 3.5 20:19:50 10° N 20:24:05 59° E 20:25:32 38° SE
Cosmos 990 Rocket 3.9 20:19:10 10° NNW 20:24:21 88° ENE 20:28:14 18° SSE
Cosmos 2150 Rocket 4.0 20:19:01 10° NNW 20:24:22 89° ENE 20:28:48 16° SSE
ALOS 4.3 20:20:31 10° SSW 20:24:31 28° W 20:28:32 10° NW
Envisat 3.2 20:25:55 35° ESE 20:27:36 49° ENE 20:32:29 10° N
Cosmos 2369 Rocket 3.8 20:22:49 10° NW 20:27:49 33° WSW 20:32:45 10° SSW
Lacrosse 5 3.4 20:27:07 10° WNW 20:31:35 32° WSW 20:35:53 11° S
Resurs 01 Rocket 1.5 20:31:52 37° SSE 20:33:33 75° ENE 20:37:58 10° N
Cosmos 1656 Rocket 3.6 20:29:33 10° NNW 20:35:10 64° ENE 20:36:59 41° SE
CZ-2D R/B 3.4 20:37:15 35° S 20:38:43 69° WSW 20:42:31 10° NNW
GP-B 3.0 20:42:41 10° N 20:46:46 67° NE 20:46:46 67° NE
Nadezhda 3 Rocket 4.1 20:43:31 10° N 20:49:40 52° E 20:50:11 50° E
In-Cosmos 22 4.1 20:46:38 10° N 20:52:20 84° E 20:54:17 44° SSE
Cosmos 2184 Rocket 4.5 20:46:30 10° SSW 20:52:41 61° W 20:58:57 10° N
ATLAS CENTAUR R/B 2.6 20:43:12 10° NW 20:54:26 87° NE 20:55:20 63° SE
Cosmos 1544 4.4 20:58:09 35° NNW 20:58:09 35° NNW 21:00:31 10° N
FALCON 9 R/B 2.1 20:57:17 10° W 21:00:55 84° S 21:01:59 62° ESE
Cosmos 1812 Rocket 4.1 21:03:03 53° N 21:03:03 53° N 21:06:34 10° N
Meteor 1-24 Rocket 4.2 20:59:11 10° NNW 21:05:04 61° W 21:08:30 25° SSW
ATLAS 2AS CENTAUR R/B 4.4 21:06:53 10° N 21:12:31 20° NE 21:13:10 20° NE
NOSS 3-1 (A) 4.0 21:14:33 10° NNW 21:22:25 86° ENE 21:23:51 66° SE
Cosmos 540 Rocket 4.4 21:20:07 10° SW 21:24:58 44° WNW 21:29:52 10° N
NOSS 3-1 (C) 4.3 21:25:25 10° NW 21:33:11 64° WSW 21:35:16 50° S
ATLAS 2AS CENTAUR R/B 4.4 22:56:52 10° NNW 23:00:36 31° NNW 23:00:36 31° NNW
